Location: Rio de Janeiro
(22.9068°S, 43.1729°W)
Time: 11:40:45
(UTC-03:00)

Envisat - Pass Details

Date: 10 December 2023
Orbit: 762 x 764 km, 98.3° (Epoch: 03 March)

Event Time Altitude Azimuth Distance (km) Brightness Sun altitude
Exits shadow 02:35:00 50° 62° (ENE) 978 3.5 -28.4°
Maximum altitude 02:35:57 58° 104° (ESE) 892 3.5 -28.2°
Drops below altitude 10° 02:40:57 10° 182° (S) 2,319 6.0 -27.4°
Sets 02:43:18 0° 186° (S) 3,251 6.8 -27.0°
